This is the latest recevied weather packets stored in our database for station/object K5NWZ. If no packets are shown the sender has not sent any weather packets the latest 10 day(s).
| Time | Temp. | Humidity | Pressure | Rain* | Wind** | Luminosity | Snow |
|---|---|---|---|---|---|---|---|
| 1777124184 | 1.11° C | 66% | 1023.4 hPa | 0 mm | - | 60 W/m² | - |
| 1777123881 | 1.11° C | 65% | 1023.3 hPa | 0 mm | - | 54 W/m² | - |
| 1777123577 | 1.11° C | 65% | 1023.4 hPa | 0 mm | - | 48 W/m² | - |
| 1777123273 | 1.11° C | 65% | 1023.4 hPa | 0 mm | - | 38 W/m² | - |
| 1777122969 | 1.11° C | 65% | 1023.3 hPa | 0 mm | - | 32 W/m² | - |
| 1777122666 | 1.11° C | 66% | 1023.4 hPa | 0 mm | - | 30 W/m² | - |
| 1777122361 | 1.11° C | 65% | 1023.4 hPa | 0 mm | - | 27 W/m² | - |
| 1777122058 | 1.11° C | 65% | 1023.4 hPa | 0 mm | - | 22 W/m² | - |
| 1777121754 | 1.11° C | 65% | 1023.4 hPa | 0 mm | - | 24 W/m² | - |
| 1777121451 | 1.11° C | 65% | 1023.3 hPa | 0 mm | - | 19 W/m² | - |
| 1777121151 | 1.11° C | 66% | 1023.7 hPa | 0 mm | - | 16 W/m² | - |
| 1777120849 | 0.56° C | 66% | 1023.5 hPa | 0 mm | - | 14 W/m² | - |
| 1777120544 | 0.56° C | 66% | 1023.3 hPa | 0 mm | - | 11 W/m² | - |
| 1777120240 | 0.56° C | 66% | 1023.3 hPa | 0 mm | - | 9 W/m² | - |
| 1777119935 | 0.56° C | 66% | 1023.1 hPa | 0 mm | - | 9 W/m² | - |
| 1777119633 | 0.56° C | 66% | 1023.2 hPa | 0 mm | - | 6 W/m² | - |
| 1777119328 | 0.56° C | 66% | 1023.1 hPa | 0 mm | - | 3 W/m² | - |
| 1777119028 | 0.56° C | 66% | 1023.1 hPa | 0 mm | - | 2 W/m² | - |
| 1777118724 | 0.56° C | 67% | 1023.1 hPa | 0 mm | - | 1 W/m² | - |
| 1777118420 | 0.56° C | 66% | 1022.8 hPa | 0 mm | - | 1 W/m² | - |
| 1777118116 | 0.56° C | 67% | 1023 hPa | 0 mm | - | 0 W/m² | - |
| 1777117813 | 0.56° C | 67% | 1022.6 hPa | 0 mm | - | 0 W/m² | - |
| 1777117510 | 0.56° C | 68% | 1022.8 hPa | 0 mm | - | 0 W/m² | - |
* Rain latest hour (hover to see other rain measurements)
** Current wind speed in m/s (hover to see current wind gust speed)